H1 CPF 2 NER 2022 4 23 9 113 01 glonass121 H2 1000702 9121 36401 2022 4 23 0 0 0 2022 4 26 23 45 0 900 1 1 0 0 0 1 H9 10 0 59692 0.00000 0 -16453827.612 -1669917.536 19361894.845 10 0 59692 900.00000 0 -14187597.875 -2731919.843 20974536.655 10 0 59692 1800.00000 0 -11861943.353 -4054108.829 22177977.118 10 0 59692 2700.00000 0 -9545568.474 -5619702.463 22949074.931 10 0 59692 3600.00000 0 -7303951.675 -7399446.427 23273174.517 10 0 59692 4500.00000 0 -5196770.510 -9352666.650 23144364.669 10 0 59692 5400.00000 0 -3275593.263 -11428812.785 22565563.146 10 0 59692 6300.00000 0 -1581931.764 -13569426.197 21548427.973 10 0 59692 7200.00000 0 -145734.069 -15710448.588 20113099.633 10 0 59692 8100.00000 0 1015623.554 -17784773.842 18287781.427 10 0 59692 9000.00000 0 1897807.187 -19724936.335 16108168.096 10 0 59692 9900.00000 0 2509442.737 -21465823.914 13616735.392 10 0 59692 10800.00000 0 2871487.709 -22947303.607 10861905.399 10 0 59692 11700.00000 0 3016086.939 -24116652.337 7897104.333 10 0 59692 12600.00000 0 2984962.867 -24930693.432 4779731.136 10 0 59692 13500.00000 0 2827409.635 -25357552.238 1570056.372 10 0 59692 14400.00000 0 2597975.991 -25377959.989 -1669928.219 10 0 59692 15300.00000 0 2353934.259 -24986053.596 -4877688.467 10 0 59692 16200.00000 0 2152640.877 -24189639.570 -7991333.648 10 0 59692 17100.00000 0 2048898.114 -23009911.961 -10950788.461 10 0 59692 18000.00000 0 2092426.213 -21480636.176 -13698930.275 10 0 59692 18900.00000 0 2325550.671 -19646831.961 -16182671.728 10 0 59692 19800.00000 0 2781200.618 -17563008.888 -18353969.624 10 0 59692 20700.00000 0 3481301.755 -15291025.712 -20170742.172 10 0 59692 21600.00000 0 4435631.572 -12897660.047 -21597678.172 10 0 59692 22500.00000 0 5641186.081 -10451986.642 -22606923.253 10 0 59692 23400.00000 0 7082086.764 -8022670.626 -23178630.052 10 0 59692 24300.00000 0 8730034.670 -5675285.861 -23301361.247 10 0 59692 25200.00000 0 10545296.338 -3469768.138 -22972336.512 10 0 59692 26100.00000 0 12478184.242 -1458108.221 -22197516.837 10 0 59692 27000.00000 0 14470973.793 317619.411 -20991522.308 10 0 59692 27900.00000 0 16460180.223 1826809.313 -19377382.283 10 0 59692 28800.00000 0 18379102.741 3051393.112 -17386120.013 10 0 59692 29700.00000 0 20160531.135 3986376.389 -15056177.062 10 0 59692 30600.00000 0 21739501.885 4639819.991 -12432686.282 10 0 59692 31500.00000 0 23055987.362 5032264.665 -9566605.719 10 0 59692 32400.00000 0 24057403.381 5195621.946 -6513729.206 10 0 59692 33300.00000 0 24700827.035 5171577.475 -3333592.675 10 0 59692 34200.00000 0 24954828.285 5009574.453 -88298.291 10 0 59692 35100.00000 0 24800835.004 4764463.878 3158719.176 10 0 59692 36000.00000 0 24233971.075 4493923.260 6343957.427 10 0 59692 36900.00000 0 23263330.043 4255756.156 9405115.694 10 0 59692 37800.00000 0 21911671.600 4105190.382 12282340.072 10 0 59692 38700.00000 0 20214553.524 4092292.943 14919417.997 10 0 59692 39600.00000 0 18218936.538 4259614.403 17264895.930 10 0 59692 40500.00000 0 15981322.564 4640165.111 19273096.534 10 0 59692 41400.00000 0 13565506.878 5255810.704 20905014.312 10 0 59692 42300.00000 0 11040041.118 6116155.503 22129071.780 10 0 59692 43200.00000 0 8475515.801 7217960.853 22921721.936 10 0 59692 44100.00000 0 5941777.893 8545121.927 23267886.441 10 0 59692 45000.00000 0 3505200.775 10069202.336 23161222.779 10 0 59692 45900.00000 0 1226120.573 11750502.131 22604217.396 10 0 59692 46800.00000 0 -843455.361 13539612.265 21608105.435 10 0 59692 47700.00000 0 -2661774.359 15379388.499 20192621.085 10 0 59692 48600.00000 0 -4198821.535 17207260.638 18385585.670 10 0 59692 49500.00000 0 -5437301.974 18957779.712 16222343.435 10 0 59692 50400.00000 0 -6373084.994 20565296.435 13745057.593 10 0 59692 51300.00000 0 -7015096.079 21966659.635 11001881.332 10 0 59692 52200.00000 0 -7384664.726 23103823.214 8046020.404 10 0 59692 53100.00000 0 -7514358.620 23926254.460 4934705.575 10 0 59692 54000.00000 0 -7446355.386 24393045.253 1728094.375 10 0 59692 54900.00000 0 -7230421.593 24474640.165 -1511877.521 10 0 59692 55800.00000 0 -6921584.305 24154111.316 -4722674.218 10 0 59692 56700.00000 0 -6577592.616 23427928.375 -7842345.701 10 0 59692 57600.00000 0 -6256274.715 22306192.608 -10810700.987 10 0 59692 58500.00000 0 -6012900.022 20812325.505 -13570447.562 10 0 59692 59400.00000 0 -5897655.528 18982224.399 -16068277.068 10 0 59692 60300.00000 0 -5953340.836 16862918.896 -18255878.184 10 0 59692 61200.00000 0 -6213377.552 14510781.975 -20090858.675 10 0 59692 62100.00000 0 -6700216.185 11989367.526 -21537560.146 10 0 59692 63000.00000 0 -7424207.860 9366961.186 -22567750.535 10 0 59692 63900.00000 0 -8382989.524 6713943.307 -23161181.130 10 0 59692 64800.00000 0 -9561410.781 4100070.736 -23305996.963 10 0 59692 65700.00000 0 -10932008.511 1591788.011 -22998991.503 10 0 59692 66600.00000 0 -12456013.008 -750321.844 -22245699.008 10 0 59692 67500.00000 0 -14084847.322 -2873841.688 -21060320.490 10 0 59692 68400.00000 0 -15762060.620 -4736483.792 -19465482.090 10 0 59692 69300.00000 0 -17425617.594 -6307629.684 -17491827.745 10 0 59692 70200.00000 0 -19010450.065 -7569380.496 -15177451.339 10 0 59692 71100.00000 0 -20451164.797 -8517072.013 -12567176.904 10 0 59692 72000.00000 0 -21684793.530 -9159230.803 -9711699.063 10 0 59692 72900.00000 0 -22653468.282 -9516971.715 -6666599.297 10 0 59692 73800.00000 0 -23306906.948 -9622861.056 -3491256.909 10 0 59692 74700.00000 0 -23604601.396 -9519293.181 -247676.637 10 0 59692 75600.00000 0 -23517612.483 -9256449.889 3000742.753 10 0 59692 76500.00000 0 -23029892.989 -8889930.693 6190472.651 10 0 59692 77400.00000 0 -22139079.917 -8478156.856 9259124.134 10 0 59692 78300.00000 0 -20856720.767 -8079662.364 12146695.109 10 0 59692 79200.00000 0 -19207923.308 -7750390.048 14796767.902 10 0 59692 80100.00000 0 -17230443.719 -7541110.751 17157631.257 10 0 59692 81000.00000 0 -14973252.562 -7495077.671 19183302.951 10 0 59692 81900.00000 0 -12494640.630 -7646017.312 20834431.806 10 0 59692 82800.00000 0 -9859946.478 -8016543.113 22079061.070 10 0 59692 83700.00000 0 -7139003.148 -8617058.993 22893238.692 10 0 59692 84600.00000 0 -4403412.873 -9445198.274 23261463.792 10 0 59692 85500.00000 0 -1723765.080 -10485820.091 23176962.325 10 0 59693 0.00000 0 833085.559 -11711561.253 22641788.901 10 0 59693 900.00000 0 3206569.455 -13083918.743 21666754.762 10 0 59693 1800.00000 0 5344672.655 -14554813.446 20271186.632 10 0 59693 2700.00000 0 7205840.220 -16068569.759 18482522.408 10 0 59693 3600.00000 0 8760432.994 -17564225.125 16335754.173 10 0 59693 4500.00000 0 9991682.221 -18978072.597 13872730.724 10 0 59693 5400.00000 0 10896106.063 -20246329.917 11141334.277 10 0 59693 6300.00000 0 11483374.529 -21307824.099 8194547.875 10 0 59693 7200.00000 0 11775631.951 -22106580.498 5089431.723 10 0 59693 8100.00000 0 11806308.185 -22594209.789 1886027.831 10 0 59693 9000.00000 0 11618470.341 -22731995.027 -1353786.709 10 0 59693 9900.00000 0 11262785.131 -22492593.415 -4567476.793 10 0 59693 10800.00000 0 10795177.467 -21861283.337 -7693035.571 10 0 59693 11700.00000 0 10274282.893 -20836705.703 -10670158.785 10 0 59693 12600.00000 0 9758799.465 -19431069.127 -13441386.356 10 0 59693 13500.00000 0 9304848.612 -17669810.058 -15953191.155 10 0 59693 14400.00000 0 8963453.994 -15590720.829 -18156995.843 10 0 59693 15300.00000 0 8778242.682 -13242579.999 -20010099.688 10 0 59693 16200.00000 0 8783464.051 -10683339.334 -21476498.826 10 0 59693 17100.00000 0 9002409.259 -7977939.666 -22527584.958 10 0 59693 18000.00000 0 9446298.147 -5195843.128 -23142709.158 10 0 59693 18900.00000 0 10113681.773 -2408381.033 -23309599.578 10 0 59693 19800.00000 0 10990388.020 313975.390 -23024623.867 10 0 59693 20700.00000 0 12050015.625 2904310.106 -22292889.550 10 0 59693 21600.00000 0 13254959.405 5301812.701 -21128178.171 10 0 59693 22500.00000 0 14557927.218 7454078.490 -19552711.866 10 0 59693 23400.00000 0 15903888.202 9319061.984 -17596754.081 10 0 59693 24300.00000 0 17232373.022 10866601.045 -15298049.434 10 0 59693 25200.00000 0 18480031.004 12079446.255 -12701111.145 10 0 59693 26100.00000 0 19583336.970 12953750.319 -9856368.017 10 0 59693 27000.00000 0 20481332.980 13498995.101 -6819186.410 10 0 59693 27900.00000 0 21118287.529 13737357.874 -3648785.909 10 0 59693 28800.00000 0 21446157.192 13702542.740 -407070.502 10 0 59693 29700.00000 0 21426743.516 13438126.721 2842600.478 10 0 59693 30600.00000 0 21033450.578 12995491.597 6036675.555 10 0 59693 31500.00000 0 20252565.815 12431431.065 9112680.970 10 0 59693 32400.00000 0 19084007.434 11805537.358 12010469.555 10 0 59693 33300.00000 0 17541505.185 11177481.237 14673421.357 10 0 59693 34200.00000 0 15652206.218 10604303.896 17049569.922 10 0 59693 35100.00000 0 13455722.951 10137838.443 19092630.296 10 0 59693 36000.00000 0 11002664.193 9822372.470 20762907.419 10 0 59693 36900.00000 0 8352713.074 9692652.069 22028066.665 10 0 59693 37800.00000 0 5572334.438 9772312.099 22863751.929 10 0 59693 38700.00000 0 2732209.654 10072798.458 23254040.318 10 0 59693 39600.00000 0 -95492.287 10592826.358 23191726.313 10 0 59693 40500.00000 0 -2839892.638 11318395.306 22678432.076 10 0 59693 41400.00000 0 -5434113.968 12223357.650 21724544.137 10 0 59693 42300.00000 0 -7817812.416 13270514.127 20348980.145 10 0 59693 43200.00000 0 -9939427.742 14413187.957 18578792.536 10 0 59693 44100.00000 0 -11758060.303 15597209.422 16448618.762 10 0 59693 45000.00000 0 -13244900.203 16763226.255 13999990.410 10 0 59693 45900.00000 0 -14384152.943 17849242.309 11280515.721 10 0 59693 46800.00000 0 -15173426.847 18793278.221 8342951.923 10 0 59693 47700.00000 0 -15623569.728 19536043.305 5244185.547 10 0 59693 48600.00000 0 -15757964.770 20023508.090 2044140.051 10 0 59693 49500.00000 0 -15611317.501 20209271.433 -1195368.981 10 0 59693 50400.00000 0 -15227986.140 20056624.903 -4411810.009 10 0 59693 51300.00000 0 -14659925.914 19540229.693 -7543121.946 10 0 59693 52200.00000 0 -13964333.231 18647337.200 -10528889.653 10 0 59693 53100.00000 0 -13201087.503 17378502.971 -13311487.648 10 0 59693 54000.00000 0 -12430096.333 15747764.108 -15837171.934 10 0 59693 54900.00000 0 -11708653.593 13782271.810 -18057100.772 10 0 59693 55800.00000 0 -11088919.349 11521392.609 -19928266.260 10 0 59693 56700.00000 0 -10615625.781 9015313.206 -21414320.119 10 0 59693 57600.00000 0 -10324104.307 6323203.734 -22486278.575 10 0 59693 58500.00000 0 -10238716.439 3511012.410 -23123092.978 10 0 59693 59400.00000 0 -10371754.815 648979.585 -23312074.793 10 0 59693 60300.00000 0 -10722862.089 -2191028.890 -23049165.735 10 0 59693 61200.00000 0 -11278994.403 -4938260.915 -22339046.122 10 0 59693 62100.00000 0 -12014933.949 -7525778.237 -21195077.187 10 0 59693 63000.00000 0 -12894332.338 -9893006.189 -19639075.823 10 0 59693 63900.00000 0 -13871244.130 -11988026.926 -17700923.356 10 0 59693 64800.00000 0 -14892088.772 -13769519.755 -15418013.162 10 0 59693 65700.00000 0 -15897960.344 -15208265.958 -12834545.376 10 0 59693 66600.00000 0 -16827188.728 -16288153.065 -10000680.493 10 0 59693 67500.00000 0 -17618043.982 -17006634.346 -6971567.117 10 0 59693 68400.00000 0 -18211468.358 -17374622.365 -3806262.393 10 0 59693 69300.00000 0 -18553718.184 -17415819.699 -566566.817 10 0 59693 70200.00000 0 -18598800.796 -17165514.634 2684202.478 10 0 59693 71100.00000 0 -18310599.985 -16668893.183 5882473.878 10 0 59693 72000.00000 0 -17664596.628 -15978940.262 8965691.492 10 0 59693 72900.00000 0 -16649108.722 -15154021.211 11873565.703 10 0 59693 73800.00000 0 -15265996.079 -14255248.928 14549276.777 10 0 59693 74700.00000 0 -13530798.623 -13343751.305 16940605.356 10 0 59693 75600.00000 0 -11472302.050 -12477957.684 19000965.787 10 0 59693 76500.00000 0 -9131549.702 -11711021.732 20690320.807 10 0 59693 77400.00000 0 -6560343.545 -11088491.472 21975959.214 10 0 59693 78300.00000 0 -3819298.927 -10646325.761 22833121.704 10 0 59693 79200.00000 0 -975536.491 -10409340.661 23245463.802 10 0 59693 80100.00000 0 1899890.468 -10390149.983 23205348.525 10 0 59693 81000.00000 0 4734724.577 -10588642.586 22713965.277 10 0 59693 81900.00000 0 7458274.718 -10992015.717 21781275.051 10 0 59693 82800.00000 0 10004113.009 -11575360.091 20425785.424 10 0 59693 83700.00000 0 12312587.580 -12302769.147 18674162.054 10 0 59693 84600.00000 0 14333048.808 -13128923.299 16560686.184 10 0 59693 85500.00000 0 16025699.202 -14001080.560 14126570.359 10 0 59694 0.00000 0 17362993.353 -14861388.556 11419146.996 10 0 59694 900.00000 0 18330533.911 -15649420.760 8490944.670 10 0 59694 1800.00000 0 18927428.148 -16304829.553 5398673.894 10 0 59694 2700.00000 0 19166095.885 -16770007.217 2202136.806 10 0 59694 3600.00000 0 19071537.668 -16992643.428 -1036915.375 10 0 59694 4500.00000 0 18680096.445 -16928074.113 -4255957.555 10 0 59694 5400.00000 0 18037765.508 -16541324.811 -7392877.230 10 0 59694 6300.00000 0 17198113.646 -15808764.340 -10387151.061 10 0 59694 7200.00000 0 16219913.724 -14719300.490 -13180990.671 10 0 59694 8100.00000 0 15164572.665 -13275067.992 -15720437.500 10 0 59694 9000.00000 0 14093468.662 -11491579.358 -17956387.505 10 0 59694 9900.00000 0 13065305.173 -9397330.934 -19845527.478 10 0 59694 10800.00000 0 12133590.615 -7032878.164 -21351166.335 10 0 59694 11700.00000 0 11344347.802 -4449415.577 -22443946.163 10 0 59694 12600.00000 0 10734148.154 -1706917.042 -23102419.611 10 0 59694 13500.00000 0 10328552.915 1128090.171 -23313482.154 10 0 59694 14400.00000 0 10141027.435 3985028.751 -23072649.893 10 0 59694 15300.00000 0 10172375.645 6791951.306 -22384175.908 10 0 59694 16200.00000 0 10410720.752 9478288.165 -21261000.699 10 0 59694 17100.00000 0 10832035.731 11977550.462 -19724535.123 10 0 59694 18000.00000 0 11401204.286 14229876.519 -17804277.198 10 0 59694 18900.00000 0 12073570.365 16184315.066 -15537267.482 10 0 59694 19800.00000 0 12796913.169 17800748.707 -12967391.045 10 0 59694 20700.00000 0 13513765.731 19051375.135 -10144537.701 10 0 59694 21600.00000 0 14163979.452 19921681.845 -7123635.551 10 0 59694 22500.00000 0 14687425.401 20410871.135 -3963576.241 10 0 59694 23400.00000 0 15026716.196 20531715.659 -726053.469 10 0 59694 24300.00000 0 15129830.488 20309849.527 2525661.267 10 0 59694 25200.00000 0 14952525.583 19782524.664 5727979.674 10 0 59694 26100.00000 0 14460432.503 18996885.750 8818267.085 10 0 59694 27000.00000 0 13630741.461 18007838.485 11736094.596 10 0 59694 27900.00000 0 12453403.633 16875603.814 14424445.588 10 0 59694 28800.00000 0 10931796.471 15663064.565 16830850.389 10 0 59694 29700.00000 0 9082823.444 14433019.778 18908424.882 10 0 59694 30600.00000 0 6936443.895 13245465.526 20616791.492 10 0 59694 31500.00000 0 4534653.663 12155019.220 21922863.933 10 0 59694 32400.00000 0 1929960.678 11208597.333 22801480.794 10 0 59694 33300.00000 0 -816578.840 10443444.595 23235876.664 10 0 59694 34200.00000 0 -3637679.548 9885596.797 23217983.251 10 0 59694 35100.00000 0 -6462403.180 9548839.996 22748556.842 10 0 59694 36000.00000 0 -9218883.452 9434207.226 21837131.979 10 0 59694 36900.00000 0 -11837085.885 9530030.727 20501804.696 10 0 59694 37800.00000 0 -14251488.403 9812544.179 18768851.869 10 0 59694 38700.00000 0 -16403572.781 10247006.440 16672196.054 10 0 59694 39600.00000 0 -18244025.503 10789296.890 14252727.884 10 0 59694 40500.00000 0 -19734559.480 11387913.253 11557500.307 10 0 59694 41400.00000 0 -20849284.080 11986286.719 8638810.934 10 0 59694 42300.00000 0 -21575569.774 12525316.626 5553190.478 10 0 59694 43200.00000 0 -21914374.636 12946018.573 2360316.515 10 0 59694 44100.00000 0 -21880021.896 13192175.674 -878127.215 10 0 59694 45000.00000 0 -21499439.969 13212883.057 -4099624.998 10 0 59694 45900.00000 0 -20810898.133 12964880.366 -7242015.645 10 0 59694 46800.00000 0 -19862291.196 12414575.951 -10244670.144 10 0 59694 47700.00000 0 -18709044.548 11539679.046 -13049639.498 10 0 59694 48600.00000 0 -17411726.121 10330372.184 -15602752.599 10 0 59694 49500.00000 0 -16033463.433 8789974.567 -17854644.801 10 0 59694 50400.00000 0 -14637271.714 6935067.649 -19761698.963 10 0 59694 51300.00000 0 -13283402.715 4795075.686 -21286882.208 10 0 59694 52200.00000 0 -12026823.117 2411315.932 -22400463.142 10 0 59694 53100.00000 0 -10914926.519 -164445.357 -23080596.003 10 0 59694 54000.00000 0 -9985573.892 -2871874.901 -23313760.201 10 0 59694 54900.00000 0 -9265544.454 -5644318.021 -23095045.818 10 0 59694 55800.00000 0 -8769462.692 -8411318.148 -22428277.920 10 0 59694 56700.00000 0 -8499248.079 -11101308.596 -21325975.172 10 0 59694 57600.00000 0 -8444112.773 -13644366.872 -19809140.941 10 0 59694 58500.00000 0 -8581109.989 -15974918.016 -17906888.181 10 0 59694 59400.00000 0 -8876212.546 -18034274.426 -15655902.588 10 0 59694 60300.00000 0 -9285878.436 -19772905.272 -13099751.913 10 0 59694 61200.00000 0 -9759039.013 -21152338.757 -10288052.868 10 0 59694 62100.00000 0 -10239426.555 -22146615.270 -7275510.547 10 0 59694 63000.00000 0 -10668142.424 -22743227.927 -4120848.556 10 0 59694 63900.00000 0 -10986355.716 -22943508.612 -885651.257 10 0 59694 64800.00000 0 -11138015.695 -22762441.523 2366857.987 10 0 59694 65700.00000 0 -11072459.957 -22227911.149 5573076.679 10 0 59694 66600.00000 0 -10746804.290 -21379416.497 8670293.805 10 0 59694 67500.00000 0 -10128009.463 -20266306.989 11597943.550 10 0 59694 68400.00000 0 -9194534.242 -18945616.549 14298814.693 10 0 59694 69300.00000 0 -7937502.249 -17479590.073 16720189.381 10 0 59694 70200.00000 0 -6361331.735 -15933009.704 18814886.981 10 0 59694 71100.00000 0 -4483801.031 -14370436.653 20542191.266 10 0 59694 72000.00000 0 -2335547.219 -12853487.344 21868642.224 10 0 59694 72900.00000 0 40979.868 -11438260.302 22768677.342 10 0 59694 73800.00000 0 2593062.924 -10173022.720 23225110.898 10 0 59694 74700.00000 0 5259695.190 -9096253.605 23229443.551 10 0 59694 75600.00000 0 7973906.879 -8235124.127 22781998.379 10 0 59694 76500.00000 0 10665341.659 -7604476.554 21891883.044 10 0 59694 77400.00000 0 13262975.010 -7206341.444 20576781.305 10 0 59694 78300.00000 0 15697861.398 -7030009.815 18862580.235 10 0 59694 79200.00000 0 17905796.817 -7052653.639 16782842.401 10 0 59694 80100.00000 0 19829787.546 -7240465.291 14378134.935 10 0 59694 81000.00000 0 21422224.777 -7550265.318 11695229.696 10 0 59694 81900.00000 0 22646677.475 -7931508.929 8786190.669 10 0 59694 82800.00000 0 23479231.832 -8328605.753 5707366.538 10 0 59694 83700.00000 0 23909324.623 -8683454.997 2518307.607 10 0 59694 84600.00000 0 23940038.543 -8938089.934 -719372.761 10 0 59694 85500.00000 0 23587849.455 -9037321.615 -3943171.228 10 0 59695 0.00000 0 22881837.833 -8931272.195 -7090880.634 10 0 59695 900.00000 0 21862397.665 -8577692.914 -10101769.737 10 0 59695 1800.00000 0 20579497.712 -7943971.018 -12917731.341 10 0 59695 2700.00000 0 19090565.626 -7008742.196 -15484384.258 10 0 59695 3600.00000 0 17458082.618 -5763041.311 -17752105.458 10 0 59695 4500.00000 0 15746986.795 -4210942.683 -19676975.830 10 0 59695 5400.00000 0 14021991.337 -2369661.658 -21221622.417 10 0 59695 6300.00000 0 12344927.248 -269110.770 -22355941.795 10 0 59695 7200.00000 0 10772219.657 2049074.100 -23057690.977 10 0 59695 8100.00000 0 9352601.647 4533000.765 -23312934.211 10 0 59695 9000.00000 0 8125160.378 7122423.922 -23116336.137 10 0 59695 9900.00000 0 7117797.329 9751009.135 -22471294.048 10 0 59695 10800.00000 0 6346167.955 12348866.960 -21389904.628 10 0 59695 11700.00000 0 5813146.798 14845254.493 -19892763.225 10 0 59695 12600.00000 0 5508842.619 17171333.545 -18008596.778 10 0 59695 13500.00000 0 5411165.231 19262871.122 -15773734.749 10 0 59695 14400.00000 0 5486922.392 21062769.019 -13231425.750 10 0 59695 15300.00000 0 5693402.321 22523315.215 -10431011.139 10 0 59695 16200.00000 0 5980376.048 23608060.534 -7426970.342 10 0 59695 17100.00000 0 6292435.021 24293239.202 -4277855.897 10 0 59695 18000.00000 0 6571564.100 24568670.838 -1045139.518 10 0 59695 18900.00000 0 6759838.924 24438103.614 2208007.077 10 0 59695 19800.00000 0 6802130.538 23918982.477 5417970.755 10 0 59695 20700.00000 0 6648699.223 23041651.506 8521967.682 10 0 59695 21600.00000 0 6257564.018 21848024.439 11459298.500 10 0 59695 22500.00000 0 5596544.108 20389780.809 14172560.522 10 0 59695 23400.00000 0 4644882.796 18726166.052 16608790.553 10 0 59695 24300.00000 0 3394383.257 16921491.073 18720513.949 10 0 59695 25200.00000 0 1850006.896 15042439.536 20466677.986 10 0 59695 26100.00000 0 29908.903 13155298.948 21813450.694 10 0 59695 27000.00000 0 -2035089.887 11323234.043 22734869.811 10 0 59695 27900.00000 0 -4302571.386 9603718.180 23213330.219 10 0 59695 28800.00000 0 -6720082.373 8046230.700 23239901.961 10 0 59695 29700.00000 0 -9227123.182 6690315.767 22814474.799 10 0 59695 30600.00000 0 -11757478.343 5564081.913 21945728.853 10 0 59695 31500.00000 0 -14241790.693 4683202.232 20650934.361 10 0 59695 32400.00000 0 -16610271.219 4050453.500 18955586.767 10 0 59695 33300.00000 0 -18795432.059 3655809.664 16892886.285 10 0 59695 34200.00000 0 -20734729.818 3477082.028 14503073.715 10 0 59695 35100.00000 0 -22373010.985 3481075.864 11832636.620 10 0 59695 36000.00000 0 -23664659.924 3625212.142 8933401.912 10 0 59695 36900.00000 0 -24575362.645 3859544.365 5861532.672 10 0 59695 37800.00000 0 -25083415.693 4129084.719 2676448.356 10 0 59695 38700.00000 0 -25180528.281 4376341.601 -560311.539 10 0 59695 39600.00000 0 -24872086.494 4543962.450 -3786259.379 10 0 59695 40500.00000 0 -24176870.304 4577371.955 -6939145.711 10 0 59695 41400.00000 0 -23126236.172 4427296.200 -9958138.832 10 0 59695 42300.00000 0 -21762799.552 4052068.231 -12784976.554 10 0 59695 43200.00000 0 -20138671.629 3419619.498 -15365069.942 10 0 59695 44100.00000 0 -18313322.453 2509074.304 -17648539.574 10 0 59695 45000.00000 0 -16351157.653 1311880.475 -19591165.955 10 0 59695 45900.00000 0 -14318907.408 -167572.063 -21155237.190 10 0 59695 46800.00000 0 -12282934.011 -1911872.504 -22310278.483 10 0 59695 47700.00000 0 -10306567.957 -3891056.201 -23033649.790 10 0 59695 48600.00000 0 -8447581.644 -6063601.481 -23310999.880 10 0 59695 49500.00000 0 -6755904.697 -8377918.620 -23136567.179 10 0 59695 50400.00000 0 -5271675.716 -10774272.892 -22513320.028 10 0 59695 51300.00000 0 -4023712.064 -13187065.394 -21452931.587 10 0 59695 52200.00000 0 -3028462.660 -15547379.837 -19975587.308 10 0 59695 53100.00000 0 -2289489.354 -17785691.379 -18109625.976 10 0 59695 54000.00000 0 -1797500.614 -19834625.736 -15891018.451 10 0 59695 54900.00000 0 -1530938.191 -21631653.387 -13362691.681 10 0 59695 55800.00000 0 -1457093.999 -23121604.990 -10573709.059 10 0 59695 56700.00000 0 -1533711.311 -24258900.670 -7578321.682 10 0 59695 57600.00000 0 -1711003.145 -25009396.914 -4434908.393 10 0 59695 58500.00000 0 -1934001.926 -25351770.488 -1204825.691 10 0 59695 59400.00000 0 -2145139.397 -25278378.331 2048808.826 10 0 59695 60300.00000 0 -2286944.964 -24795554.899 5262373.761 10 0 59695 61200.00000 0 -2304744.957 -23923332.945 8373014.724 10 0 59695 62100.00000 0 -2149244.817 -22694599.077 11319900.957 10 0 59695 63000.00000 0 -1778881.224 -21153720.301 14045440.311 10 0 59695 63900.00000 0 -1161841.384 -19354701.098 16496426.092 10 0 59695 64800.00000 0 -277661.481 -17358950.967 18625091.262 10 0 59695 65700.00000 0 881664.927 -15232759.134 20390047.969 10 0 59695 66600.00000 0 2311116.004 -13044585.374 21757093.361 10 0 59695 67500.00000 0 3992632.057 -10862283.052 22699866.190 10 0 59695 68400.00000 0 5895666.702 -8750372.467 23200342.375 10 0 59695 69300.00000 0 7978274.023 -6767479.452 23249161.450 10 0 59695 70200.00000 0 10188684.325 -4964045.971 22845779.675 10 0 59695 71100.00000 0 12467300.793 -3380406.854 21998449.163 10 0 59695 72000.00000 0 14749032.016 -2045310.574 20724025.911 10 0 59695 72900.00000 0 16965862.054 -974942.499 19047612.784 10 0 59695 73800.00000 0 19049550.565 -172487.579 17002046.464 10 0 59695 74700.00000 0 20934350.782 371753.205 14627240.014 10 0 59695 75600.00000 0 22559633.262 679701.392 11969395.062 10 0 59695 76500.00000 0 23872307.837 784325.662 9080099.542 10 0 59695 77400.00000 0 24828945.029 728004.430 6015328.785 10 0 59695 78300.00000 0 25397510.989 560496.920 2834368.999 10 0 59695 79200.00000 0 25558646.112 336608.781 -401316.781 10 0 59695 80100.00000 0 25306436.219 113650.295 -3629259.353 10 0 59695 81000.00000 0 24648645.959 -51206.755 -6787169.480 10 0 59695 81900.00000 0 23606405.782 -103563.696 -9814118.289 10 0 59695 82800.00000 0 22213365.961 5688.106 -12651690.915 10 0 59695 83700.00000 0 20514352.469 318072.281 -15245093.083 10 0 59695 84600.00000 0 18563579.481 865549.701 -17544191.164 10 0 59695 85500.00000 0 16422491.134 1668940.332 -19504467.241 99